| time (UTC) | temp F | wind direction | speed MPH | gust MPH | rain 1hr in | rain 24hr in | rain mn in | humidity % | barometer mb |
| 20260507180036 | 59 | 304 | 4.0 | 6.0 | 0.00 | 0.00 | 0.00 | 44 | 1015.2 |
| 20260507175532 | 58 | 6 | 2.0 | 3.0 | 0.00 | 0.00 | 0.00 | 43 | 1015.3 |
| 20260507175030 | 59 | 20 | 3.0 | 7.0 | 0.00 | 0.00 | 0.00 | 41 | 1015.4 |
| 20260507174527 | 58 | 326 | 3.0 | 3.0 | 0.00 | 0.00 | 0.00 | 44 | 1015.4 |
| 20260507174025 | 59 | 243 | 2.0 | 6.0 | 0.00 | 0.00 | 0.00 | 38 | 1015.3 |
| 20260507173521 | 59 | 299 | 2.0 | 3.0 | 0.00 | 0.00 | 0.00 | 45 | 1015.5 |
| 20260507173019 | 57 | 317 | 2.0 | 3.0 | 0.00 | 0.00 | 0.00 | 45 | 1015.7 |
| 20260507172514 | 56 | 280 | 1.0 | 3.0 | 0.00 | 0.00 | 0.00 | 44 | 1015.6 |
| 20260507172012 | 58 | 290 | 4.0 | 6.0 | 0.00 | 0.00 | 0.00 | 41 | 1016.0 |
| 20260507171507 | 58 | 213 | 0.0 | 4.0 | 0.00 | 0.00 | 0.00 | 44 | 1016.0 |
| 20260507171005 | 57 | 209 | 2.0 | 6.0 | 0.00 | 0.00 | 0.00 | 39 | 1016.0 |
| 20260507170501 | 57 | 302 | 4.0 | 6.0 | 0.00 | 0.00 | 0.00 | 43 | 1015.8 |
| 20260507165957 | 57 | 306 | 2.0 | 3.0 | 0.00 | 0.00 | 0.00 | 42 | 1015.8 |
| 20260507165454 | 56 | 329 | 2.0 | 4.0 | 0.00 | 0.00 | 0.00 | 46 | 1016.1 |
| 20260507164950 | 55 | 301 | 3.0 | 4.0 | 0.00 | 0.00 | 0.00 | 46 | 1016.1 |
| 20260507164447 | 56 | 270 | 3.0 | 6.0 | 0.00 | 0.00 | 0.00 | 44 | 1016.1 |
| 20260507163943 | 55 | 45 | 1.0 | 2.0 | 0.00 | 0.00 | 0.00 | 48 | 1016.4 |
| 20260507163441 | 55 | 304 | 4.0 | 6.0 | 0.00 | 0.00 | 0.00 | 44 | 1016.3 |
| 20260507162938 | 55 | 32 | 1.0 | 3.0 | 0.00 | 0.00 | 0.00 | 48 | 1016.4 |
| 20260507162433 | 55 | 315 | 2.0 | 3.0 | 0.00 | 0.00 | 0.00 | 46 | 1016.3 |
| 20260507161931 | 55 | 32 | 3.0 | 7.0 | 0.00 | 0.00 | 0.00 | 45 | 1016.4 |
| 20260507161426 | 55 | 296 | 4.0 | 6.0 | 0.00 | 0.00 | 0.00 | 46 | 1016.3 |
| 20260507160924 | 55 | 23 | 1.0 | 4.0 | 0.00 | 0.00 | 0.00 | 44 | 1016.2 |
| 20260507160420 | 54 | 344 | 5.0 | 7.0 | 0.00 | 0.00 | 0.00 | 46 | 1016.4 |
| 20260507155915 | 54 | 5 | 2.0 | 4.0 | 0.00 | 0.00 | 0.00 | 45 | 1016.3 |
| 20260507155411 | 54 | 37 | 4.0 | 10.0 | 0.00 | 0.00 | 0.00 | 46 | 1016.3 |
| 20260507154909 | 54 | 327 | 1.0 | 7.0 | 0.00 | 0.00 | 0.00 | 45 | 1016.5 |
| 20260507154406 | 53 | 34 | 4.0 | 6.0 | 0.00 | 0.00 | 0.00 | 46 | 1016.3 |
| 20260507153903 | 53 | 311 | 3.0 | 7.0 | 0.00 | 0.00 | 0.00 | 45 | 1016.6 |
| 20260507153359 | 53 | 357 | 2.0 | 3.0 | 0.00 | 0.00 | 0.00 | 48 | 1016.3 |
| 20260507152855 | 53 | 24 | 5.0 | 7.0 | 0.00 | 0.00 | 0.00 | 46 | 1016.1 |
| 20260507152352 | 54 | 351 | 1.0 | 4.0 | 0.00 | 0.00 | 0.00 | 44 | 1016.4 |
| 20260507151848 | 53 | 17 | 0.0 | 4.0 | 0.00 | 0.00 | 0.00 | 49 | 1016.2 |
| 20260507151344 | 53 | 319 | 3.0 | 3.0 | 0.00 | 0.00 | 0.00 | 48 | 1016.3 |
| 20260507150842 | 52 | 350 | 3.0 | 6.0 | 0.00 | 0.00 | 0.00 | 45 | 1016.1 |
| 20260507150338 | 52 | 345 | 4.0 | 6.0 | 0.00 | 0.00 | 0.00 | 47 | 1016.1 |
| 20260507145834 | 52 | 12 | 3.0 | 10.0 | 0.00 | 0.00 | 0.00 | 47 | 1016.4 |
| 20260507145331 | 52 | 215 | 0.0 | 6.0 | 0.00 | 0.00 | 0.00 | 49 | 1016.1 |
| 20260507144828 | 52 | 332 | 3.0 | 4.0 | 0.00 | 0.00 | 0.00 | 47 | 1016.3 |
| 20260507144325 | 52 | 304 | 2.0 | 4.0 | 0.00 | 0.00 | 0.00 | 47 | 1016.2 |
| 20260507143822 | 52 | 302 | 2.0 | 3.0 | 0.00 | 0.00 | 0.00 | 48 | 1016.1 |
| 20260507143319 | 52 | 198 | 0.0 | 3.0 | 0.00 | 0.00 | 0.00 | 50 | 1016.2 |
| 20260507142815 | 51 | 309 | 2.0 | 3.0 | 0.00 | 0.00 | 0.00 | 49 | 1016.2 |
| 20260507142312 | 51 | 0 | 2.0 | 3.0 | 0.00 | 0.00 | 0.00 | 46 | 1016.3 |
| 20260507141808 | 51 | 127 | 2.0 | 3.0 | 0.00 | 0.00 | 0.00 | 51 | 1016.2 |
| 20260507141305 | 51 | 319 | 0.0 | 2.0 | 0.00 | 0.00 | 0.00 | 54 | 1016.2 |
| 20260507140801 | 51 | 311 | 1.0 | 4.0 | 0.00 | 0.00 | 0.00 | 56 | 1016.3 |
| 20260507140259 | 50 | 9 | 0.0 | 2.0 | 0.00 | 0.00 | 0.00 | 53 | 1016.3 |
| 20260507135756 | 50 | 349 | 3.0 | 7.0 | 0.00 | 0.00 | 0.00 | 51 | 1016.4 |
| 20260507135253 | 50 | 301 | 1.0 | 6.0 | 0.00 | 0.00 | 0.00 | 53 | 1016.4 |
| 20260507134749 | 50 | 340 | 2.0 | 3.0 | 0.00 | 0.00 | 0.00 | 51 | 1016.2 |
| 20260507134246 | 50 | 307 | 1.0 | 3.0 | 0.00 | 0.00 | 0.00 | 55 | 1016.1 |
| 20260507133742 | 50 | 311 | 3.0 | 6.0 | 0.00 | 0.00 | 0.00 | 52 | 1016.3 |
| 20260507133239 | 49 | 354 | 1.0 | 2.0 | 0.00 | 0.00 | 0.00 | 64 | 1016.1 |
| 20260507132736 | 49 | 300 | 1.0 | 2.0 | 0.00 | 0.00 | 0.00 | 63 | 1016.2 |
| 20260507132233 | 49 | 317 | 1.0 | 2.0 | 0.00 | 0.00 | 0.00 | 65 | 1016.3 |
| 20260507131730 | 48 | 346 | 1.0 | 3.0 | 0.00 | 0.00 | 0.00 | 66 | 1016.4 |
| 20260507131227 | 48 | 310 | 1.0 | 3.0 | 0.00 | 0.00 | 0.00 | 66 | 1016.3 |
| 20260507130723 | 48 | 23 | 2.0 | 2.0 | 0.00 | 0.00 | 0.00 | 68 | 1016.3 |
| 20260507130221 | 48 | 336 | 1.0 | 3.0 | 0.00 | 0.00 | 0.00 | 71 | 1016.3 |
| 20260507125720 | 47 | 45 | 1.0 | 2.0 | 0.00 | 0.00 | 0.00 | 71 | 1016.1 |
| 20260507125217 | 46 | 41 | 1.0 | 2.0 | 0.00 | 0.00 | 0.00 | 71 | 1016.2 |
| 20260507124713 | 46 | 328 | 1.0 | 2.0 | 0.00 | 0.00 | 0.00 | 71 | 1016.3 |
| 20260507124211 | 46 | 327 | 2.0 | 3.0 | 0.00 | 0.00 | 0.00 | 72 | 1016.4 |
| 20260507123709 | 45 | 19 | 0.0 | 0.0 | 0.00 | 0.00 | 0.00 | 75 | 1016.4 |
| 20260507123206 | 45 | 26 | 0.0 | 0.0 | 0.00 | 0.00 | 0.00 | 74 | 1016.5 |
| 20260507122701 | 45 | 22 | 0.0 | 1.0 | 0.00 | 0.00 | 0.00 | 77 | 1016.4 |
| 20260507122157 | 44 | 24 | 0.0 | 0.0 | 0.00 | 0.00 | 0.00 | 78 | 1016.4 |
| 20260507121653 | 44 | 316 | 0.0 | 1.0 | 0.00 | 0.00 | 0.00 | 79 | 1016.5 |
| 20260507121149 | 44 | 356 | 0.0 | 1.0 | 0.00 | 0.00 | 0.00 | 80 | 1016.3 |
| 20260507120645 | 44 | 20 | 0.0 | 0.0 | 0.00 | 0.00 | 0.00 | 82 | 1016.3 |
| 20260507120142 | 43 | 25 | 0.0 | 0.0 | 0.00 | 0.00 | 0.00 | 85 | 1016.4 |
| 20260507115638 | 42 | 16 | 0.0 | 0.0 | 0.00 | 0.00 | 0.00 | 91 | 1016.4 |
| 20260507115134 | 41 | 305 | 0.0 | 0.0 | 0.00 | 0.00 | 0.00 | 92 | 1016.3 |
| 20260507114630 | 41 | 305 | 0.0 | 0.0 | 0.00 | 0.00 | 0.00 | 93 | 1016.5 |
| 20260507114128 | 41 | 305 | 0.0 | 0.0 | 0.00 | 0.00 | 0.00 | 93 | 1016.4 |
| 20260507113625 | 40 | 305 | 0.0 | 0.0 | 0.00 | 0.00 | 0.00 | 93 | 1016.1 |
| 20260507113122 | 40 | 305 | 0.0 | 0.0 | 0.00 | 0.00 | 0.00 | 92 | 1016.3 |
| 20260507112620 | 39 | 305 | 0.0 | 0.0 | 0.00 | 0.00 | 0.00 | 92 | 1016.4 |
| 20260507112116 | 39 | 305 | 0.0 | 0.0 | 0.00 | 0.00 | 0.00 | 93 | 1016.1 |
| 20260507111613 | 39 | 305 | 0.0 | 0.0 | 0.00 | 0.00 | 0.00 | 95 | 1016.2 |
| 20260507111110 | 39 | 305 | 0.0 | 0.0 | 0.00 | 0.00 | 0.00 | 96 | 1016.0 |
| 20260507110606 | 39 | 305 | 0.0 | 0.0 | 0.00 | 0.00 | 0.00 | 96 | 1016.1 |
| 20260507110103 | 39 | 305 | 0.0 | 0.0 | 0.00 | 0.00 | 0.00 | 96 | 1015.8 |
| 20260507105600 | 38 | 305 | 0.0 | 0.0 | 0.00 | 0.00 | 0.00 | 96 | 1016.1 |
| 20260507105056 | 38 | 305 | 0.0 | 0.0 | 0.00 | 0.00 | 0.00 | 96 | 1015.8 |
| 20260507104553 | 38 | 305 | 0.0 | 0.0 | 0.00 | 0.00 | 0.00 | 96 | 1015.7 |
| 20260507104050 | 38 | 305 | 0.0 | 0.0 | 0.00 | 0.00 | 0.00 | 96 | 1015.8 |
| 20260507103546 | 38 | 305 | 0.0 | 0.0 | 0.00 | 0.00 | 0.00 | 96 | 1015.5 |
| 20260507103043 | 39 | 305 | 0.0 | 0.0 | 0.00 | 0.00 | 0.00 | 96 | 1015.5 |
| 20260507102539 | 39 | 305 | 0.0 | 0.0 | 0.00 | 0.00 | 0.00 | 96 | 1015.6 |
| 20260507102035 | 39 | 305 | 0.0 | 0.0 | 0.00 | 0.00 | 0.00 | 96 | 1015.6 |
| 20260507101531 | 39 | 305 | 0.0 | 0.0 | 0.00 | 0.00 | 0.00 | 96 | 1015.6 |
| 20260507101027 | 39 | 305 | 0.0 | 0.0 | 0.00 | 0.00 | 0.00 | 96 | 1015.8 |
| 20260507100525 | 39 | 305 | 0.0 | 0.0 | 0.00 | 0.00 | 0.00 | 96 | 1015.7 |
| 20260507100023 | 39 | 305 | 0.0 | 0.0 | 0.00 | 0.00 | 0.00 | 96 | 1015.6 |
| 20260507095520 | 39 | 305 | 0.0 | 0.0 | 0.00 | 0.00 | 0.00 | 96 | 1015.6 |
| 20260507095017 | 39 | 305 | 0.0 | 0.0 | 0.00 | 0.00 | 0.00 | 96 | 1015.8 |
| 20260507094513 | 39 | 305 | 0.0 | 0.0 | 0.00 | 0.00 | 0.00 | 96 | 1015.5 |
| 20260507094010 | 39 | 305 | 0.0 | 0.0 | 0.00 | 0.00 | 0.00 | 96 | 1015.6 |
| 20260507093508 | 40 | 305 | 0.0 | 0.0 | 0.00 | 0.00 | 0.00 | 96 | 1015.6 |
| 20260507093007 | 40 | 305 | 0.0 | 0.0 | 0.00 | 0.00 | 0.00 | 96 | 1015.6 |
| 20260507092502 | 40 | 305 | 0.0 | 0.0 | 0.00 | 0.00 | 0.00 | 96 | 1015.6 |
| 20260507091959 | 40 | 305 | 0.0 | 0.0 | 0.00 | 0.00 | 0.00 | 96 | 1015.4 |
| 20260507091455 | 40 | 305 | 0.0 | 0.0 | 0.00 | 0.00 | 0.00 | 97 | 1015.5 |
| 20260507090951 | 40 | 305 | 0.0 | 0.0 | 0.00 | 0.00 | 0.00 | 96 | 1015.4 |
| 20260507090447 | 40 | 305 | 0.0 | 0.0 | 0.00 | 0.00 | 0.00 | 96 | 1015.3 |
| 20260507085944 | 40 | 305 | 0.0 | 0.0 | 0.00 | 0.00 | 0.00 | 96 | 1015.4 |
| 20260507085442 | 40 | 305 | 0.0 | 0.0 | 0.00 | 0.00 | 0.00 | 96 | 1015.2 |
| 20260507084938 | 41 | 305 | 0.0 | 0.0 | 0.00 | 0.00 | 0.00 | 96 | 1015.4 |
| 20260507084435 | 41 | 305 | 0.0 | 0.0 | 0.00 | 0.00 | 0.00 | 97 | 1015.2 |
| 20260507083932 | 41 | 305 | 0.0 | 0.0 | 0.00 | 0.00 | 0.00 | 97 | 1015.2 |
| 20260507083428 | 41 | 305 | 0.0 | 0.0 | 0.00 | 0.00 | 0.00 | 97 | 1015.3 |
| 20260507082925 | 41 | 305 | 0.0 | 0.0 | 0.00 | 0.00 | 0.00 | 97 | 1015.1 |
| 20260507082421 | 41 | 305 | 0.0 | 0.0 | 0.00 | 0.00 | 0.00 | 97 | 1015.2 |
| 20260507081918 | 41 | 305 | 0.0 | 0.0 | 0.00 | 0.00 | 0.00 | 97 | 1015.1 |
| 20260507081414 | 41 | 305 | 0.0 | 0.0 | 0.00 | 0.00 | 0.00 | 97 | 1015.2 |
| 20260507080911 | 41 | 305 | 0.0 | 0.0 | 0.00 | 0.00 | 0.00 | 97 | 1015.1 |
| 20260507080407 | 41 | 305 | 0.0 | 0.0 | 0.00 | 0.00 | 0.00 | 97 | 1015.0 |
| 20260507075902 | 41 | 305 | 0.0 | 0.0 | 0.00 | 0.00 | 0.00 | 97 | 1014.9 |
| 20260507075359 | 41 | 305 | 0.0 | 0.0 | 0.00 | 0.00 | 0.00 | 97 | 1014.9 |
| 20260507074855 | 41 | 305 | 0.0 | 0.0 | 0.00 | 0.00 | 0.00 | 97 | 1014.9 |
| 20260507074353 | 41 | 305 | 0.0 | 0.0 | 0.00 | 0.00 | 0.00 | 97 | 1015.3 |
| 20260507073850 | 41 | 305 | 0.0 | 0.0 | 0.00 | 0.00 | 0.00 | 97 | 1015.1 |
| 20260507073346 | 41 | 305 | 0.0 | 0.0 | 0.00 | 0.00 | 0.00 | 97 | 1015.1 |
| 20260507072844 | 41 | 305 | 0.0 | 0.0 | 0.00 | 0.00 | 0.00 | 97 | 1015.2 |
| 20260507072341 | 41 | 305 | 0.0 | 0.0 | 0.00 | 0.00 | 0.00 | 96 | 1015.1 |
| 20260507071838 | 41 | 305 | 0.0 | 0.0 | 0.00 | 0.00 | 0.00 | 96 | 1014.9 |
| 20260507071335 | 42 | 305 | 0.0 | 0.0 | 0.00 | 0.00 | 0.00 | 96 | 1015.0 |
| 20260507070831 | 42 | 305 | 0.0 | 0.0 | 0.00 | 0.00 | 0.00 | 96 | 1015.0 |
| 20260507070329 | 42 | 305 | 0.0 | 0.0 | 0.00 | 0.00 | 0.00 | 96 | 1015.1 |
| 20260507065826 | 42 | 305 | 0.0 | 0.0 | 0.00 | 0.00 | 0.00 | 96 | 1015.0 |
| 20260507065322 | 42 | 305 | 0.0 | 0.0 | 0.00 | 0.00 | 0.00 | 96 | 1015.0 |
| 20260507064820 | 42 | 305 | 0.0 | 0.0 | 0.00 | 0.00 | 0.00 | 95 | 1015.1 |
| 20260507064318 | 42 | 305 | 0.0 | 0.0 | 0.00 | 0.00 | 0.00 | 95 | 1015.0 |
| 20260507063816 | 42 | 305 | 0.0 | 0.0 | 0.00 | 0.00 | 0.00 | 95 | 1015.4 |
| 20260507063312 | 43 | 305 | 0.0 | 0.0 | 0.00 | 0.00 | 0.00 | 95 | 1015.3 |
| 20260507062809 | 43 | 305 | 0.0 | 0.0 | 0.00 | 0.00 | 0.00 | 95 | 1015.3 |
| 20260507062306 | 43 | 305 | 0.0 | 0.0 | 0.00 | 0.00 | 0.00 | 95 | 1015.3 |
| 20260507061804 | 42 | 305 | 0.0 | 0.0 | 0.00 | 0.00 | 0.00 | 95 | 1015.2 |
| 20260507061302 | 42 | 305 | 0.0 | 0.0 | 0.00 | 0.00 | 0.00 | 95 | 1015.2 |
| 20260507060800 | 42 | 305 | 0.0 | 0.0 | 0.00 | 0.00 | 0.00 | 95 | 1015.2 |
| 20260507060256 | 42 | 305 | 0.0 | 0.0 | 0.00 | 0.00 | 0.00 | 95 | 1015.2 |
| 20260507055753 | 43 | 305 | 0.0 | 0.0 | 0.00 | 0.00 | 0.00 | 95 | 1015.4 |
| 20260507055248 | 43 | 305 | 0.0 | 0.0 | 0.00 | 0.00 | 0.00 | 95 | 1015.3 |
| 20260507054744 | 43 | 305 | 0.0 | 0.0 | 0.00 | 0.00 | 0.00 | 95 | 1015.2 |
| 20260507054241 | 43 | 305 | 0.0 | 0.0 | 0.00 | 0.00 | 0.00 | 95 | 1015.3 |
| 20260507053739 | 43 | 305 | 0.0 | 0.0 | 0.00 | 0.00 | 0.00 | 95 | 1015.2 |
| 20260507053236 | 43 | 305 | 0.0 | 0.0 | 0.00 | 0.00 | 0.00 | 95 | 1015.2 |
| 20260507052735 | 43 | 305 | 0.0 | 0.0 | 0.00 | 0.00 | 0.00 | 95 | 1015.3 |
| 20260507052231 | 43 | 305 | 0.0 | 0.0 | 0.00 | 0.00 | 0.00 | 95 | 1015.1 |
| 20260507051729 | 44 | 305 | 0.0 | 0.0 | 0.00 | 0.00 | 0.00 | 95 | 1015.2 |
| 20260507051226 | 44 | 305 | 0.0 | 0.0 | 0.00 | 0.00 | 0.00 | 95 | 1015.3 |
| 20260507050722 | 44 | 305 | 0.0 | 0.0 | 0.00 | 0.00 | 0.00 | 94 | 1015.3 |
| 20260507050220 | 44 | 305 | 0.0 | 0.0 | 0.00 | 0.00 | 0.00 | 93 | 1015.7 |
| 20260507045716 | 44 | 305 | 0.0 | 0.0 | 0.00 | 0.00 | 0.00 | 93 | 1015.3 |
| 20260507045212 | 44 | 305 | 0.0 | 0.0 | 0.00 | 0.00 | 0.00 | 93 | 1015.3 |
| 20260507044709 | 44 | 305 | 0.0 | 0.0 | 0.00 | 0.00 | 0.00 | 92 | 1015.3 |
| 20260507044206 | 44 | 305 | 0.0 | 0.0 | 0.00 | 0.00 | 0.00 | 92 | 1015.3 |
| 20260507043702 | 44 | 305 | 0.0 | 0.0 | 0.00 | 0.00 | 0.00 | 92 | 1015.6 |
| 20260507043159 | 44 | 305 | 0.0 | 0.0 | 0.00 | 0.00 | 0.00 | 92 | 1015.4 |
| 20260507042656 | 44 | 305 | 0.0 | 0.0 | 0.00 | 0.00 | 0.00 | 91 | 1015.2 |
| 20260507042150 | 44 | 305 | 0.0 | 0.0 | 0.00 | 0.00 | 0.00 | 92 | 1015.3 |
| 20260507041648 | 45 | 305 | 0.0 | 0.0 | 0.00 | 0.00 | 0.00 | 92 | 1015.1 |
| 20260507041144 | 45 | 305 | 0.0 | 0.0 | 0.00 | 0.00 | 0.00 | 91 | 1015.3 |
| 20260507040642 | 45 | 305 | 0.0 | 0.0 | 0.00 | 0.00 | 0.00 | 91 | 1015.4 |
| 20260507040138 | 45 | 305 | 0.0 | 0.0 | 0.00 | 0.00 | 0.00 | 91 | 1015.2 |
| 20260507035634 | 45 | 305 | 0.0 | 0.0 | 0.00 | 0.63 | 0.63 | 91 | 1015.0 |
| 20260507035130 | 45 | 305 | 0.0 | 0.0 | 0.00 | 0.63 | 0.63 | 90 | 1015.2 |
| 20260507034627 | 45 | 305 | 0.0 | 0.0 | 0.00 | 0.63 | 0.63 | 90 | 1015.3 |
| 20260507034125 | 45 | 305 | 0.0 | 0.0 | 0.00 | 0.63 | 0.63 | 90 | 1015.1 |
| 20260507033623 | 45 | 305 | 0.0 | 0.0 | 0.00 | 0.63 | 0.63 | 89 | 1015.3 |
| 20260507033119 | 45 | 305 | 0.0 | 0.0 | 0.00 | 0.63 | 0.63 | 88 | 1015.4 |
| 20260507032617 | 46 | 305 | 0.0 | 0.0 | 0.00 | 0.63 | 0.63 | 88 | 1015.3 |
| 20260507032113 | 46 | 305 | 0.0 | 0.0 | 0.00 | 0.63 | 0.63 | 87 | 1015.1 |
| 20260507031610 | 46 | 305 | 0.0 | 0.0 | 0.00 | 0.63 | 0.63 | 87 | 1015.2 |
| 20260507031106 | 46 | 305 | 0.0 | 0.0 | 0.00 | 0.63 | 0.63 | 88 | 1015.3 |
| 20260507030603 | 46 | 305 | 0.0 | 0.0 | 0.00 | 0.63 | 0.63 | 87 | 1015.2 |
| 20260507030101 | 46 | 305 | 0.0 | 0.0 | 0.00 | 0.63 | 0.63 | 87 | 1015.3 |
| 20260507025558 | 46 | 305 | 0.0 | 0.0 | 0.00 | 0.63 | 0.63 | 88 | 1015.3 |
| 20260507025055 | 46 | 305 | 0.0 | 0.0 | 0.00 | 0.63 | 0.63 | 88 | 1015.2 |
| 20260507024553 | 46 | 305 | 0.0 | 0.0 | 0.00 | 0.63 | 0.63 | 88 | 1015.2 |
| 20260507024049 | 46 | 305 | 0.0 | 0.0 | 0.00 | 0.63 | 0.63 | 88 | 1015.3 |
| 20260507023545 | 46 | 305 | 0.0 | 0.0 | 0.00 | 0.63 | 0.63 | 87 | 1015.3 |
| 20260507023043 | 46 | 305 | 0.0 | 0.0 | 0.00 | 0.63 | 0.63 | 87 | 1015.4 |
| 20260507022539 | 47 | 305 | 0.0 | 0.0 | 0.00 | 0.63 | 0.63 | 87 | 1015.2 |
| 20260507022034 | 47 | 305 | 0.0 | 0.0 | 0.00 | 0.63 | 0.63 | 86 | 1015.2 |
| 20260507021531 | 47 | 305 | 0.0 | 0.0 | 0.00 | 0.63 | 0.63 | 85 | 1015.1 |
| 20260507021028 | 47 | 305 | 0.0 | 0.0 | 0.00 | 0.63 | 0.63 | 84 | 1015.2 |
| 20260507020525 | 48 | 305 | 0.0 | 0.0 | 0.00 | 0.63 | 0.63 | 84 | 1015.0 |
| 20260507020022 | 48 | 305 | 0.0 | 0.0 | 0.00 | 0.63 | 0.63 | 83 | 1015.2 |
| 20260507015520 | 48 | 305 | 0.0 | 0.0 | 0.00 | 0.63 | 0.63 | 82 | 1015.0 |
| 20260507015017 | 48 | 305 | 0.0 | 0.0 | 0.00 | 0.63 | 0.63 | 82 | 1014.9 |
| 20260507014514 | 48 | 305 | 0.0 | 0.0 | 0.00 | 0.63 | 0.63 | 81 | 1015.0 |
| 20260507014009 | 48 | 305 | 0.0 | 0.0 | 0.00 | 0.63 | 0.63 | 80 | 1014.9 |
| 20260507013506 | 48 | 305 | 0.0 | 0.0 | 0.00 | 0.63 | 0.63 | 81 | 1014.8 |
| 20260507013004 | 48 | 305 | 0.0 | 0.0 | 0.00 | 0.63 | 0.63 | 80 | 1014.7 |
| 20260507012500 | 49 | 305 | 0.0 | 0.0 | 0.00 | 0.63 | 0.63 | 80 | 1014.8 |
| 20260507011957 | 49 | 305 | 0.0 | 0.0 | 0.00 | 0.63 | 0.63 | 79 | 1014.5 |
| 20260507011454 | 49 | 305 | 0.0 | 0.0 | 0.00 | 0.63 | 0.63 | 78 | 1014.5 |
| 20260507010950 | 49 | 305 | 0.0 | 0.0 | 0.00 | 0.63 | 0.63 | 78 | 1014.5 |
| 20260507010444 | 50 | 305 | 0.0 | 0.0 | 0.00 | 0.63 | 0.63 | 78 | 1014.5 |
| 20260507005941 | 50 | 305 | 0.0 | 0.0 | 0.00 | 0.63 | 0.63 | 77 | 1014.6 |
| 20260507005439 | 51 | 305 | 0.0 | 0.0 | 0.00 | 0.63 | 0.63 | 77 | 1014.5 |
| 20260507004935 | 51 | 305 | 0.0 | 0.0 | 0.00 | 0.63 | 0.63 | 78 | 1014.5 |
| 20260507004432 | 52 | 305 | 0.0 | 0.0 | 0.00 | 0.63 | 0.63 | 78 | 1014.5 |
| 20260507003930 | 52 | 305 | 0.0 | 0.0 | 0.00 | 0.63 | 0.63 | 76 | 1014.5 |
| 20260507003424 | 53 | 305 | 0.0 | 0.0 | 0.00 | 0.63 | 0.63 | 78 | 1014.6 |
| 20260507002920 | 53 | 305 | 0.0 | 0.0 | 0.00 | 0.63 | 0.63 | 79 | 1014.4 |
| 20260507002416 | 53 | 305 | 0.0 | 0.0 | 0.00 | 0.63 | 0.63 | 81 | 1014.1 |
| 20260507001914 | 53 | 305 | 0.0 | 0.0 | 0.00 | 0.63 | 0.63 | 74 | 1014.3 |
| 20260507001410 | 54 | 305 | 0.0 | 0.0 | 0.00 | 0.63 | 0.63 | 70 | 1014.3 |
| 20260507000908 | 55 | 305 | 0.0 | 0.0 | 0.00 | 0.63 | 0.63 | 67 | 1014.0 |
| 20260507000405 | 55 | 305 | 0.0 | 0.0 | 0.00 | 0.63 | 0.63 | 60 | 1014.1 |
| 20260506235859 | 55 | 305 | 0.0 | 2.0 | 0.00 | 0.63 | 0.63 | 58 | 1014.1 |
| 20260506235356 | 56 | 358 | 0.0 | 1.0 | 0.00 | 0.63 | 0.63 | 59 | 1014.1 |
| 20260506234852 | 56 | 20 | 0.0 | 3.0 | 0.00 | 0.63 | 0.63 | 57 | 1013.9 |
| 20260506234350 | 56 | 315 | 1.0 | 2.0 | 0.00 | 0.63 | 0.63 | 58 | 1014.0 |
| 20260506233847 | 56 | 25 | 1.0 | 2.0 | 0.00 | 0.63 | 0.63 | 58 | 1014.0 |
| 20260506233343 | 56 | 305 | 1.0 | 2.0 | 0.00 | 0.63 | 0.63 | 59 | 1014.2 |
| 20260506232840 | 56 | 340 | 2.0 | 3.0 | 0.00 | 0.63 | 0.63 | 58 | 1014.0 |
| 20260506232336 | 56 | 35 | 2.0 | 3.0 | 0.00 | 0.63 | 0.63 | 58 | 1013.9 |
| 20260506231832 | 57 | 11 | 5.0 | 6.0 | 0.00 | 0.63 | 0.63 | 56 | 1013.8 |
| 20260506231330 | 57 | 318 | 1.0 | 3.0 | 0.00 | 0.63 | 0.63 | 56 | 1013.6 |
| 20260506230827 | 57 | 309 | 3.0 | 3.0 | 0.00 | 0.63 | 0.63 | 56 | 1013.7 |
| 20260506230324 | 57 | 1 | 3.0 | 3.0 | 0.00 | 0.63 | 0.63 | 57 | 1013.7 |
| 20260506225820 | 57 | 309 | 2.0 | 3.0 | 0.00 | 0.63 | 0.63 | 55 | 1013.8 |
| 20260506225318 | 57 | 339 | 2.0 | 4.0 | 0.00 | 0.63 | 0.63 | 54 | 1013.9 |
| 20260506224814 | 57 | 309 | 2.0 | 7.0 | 0.00 | 0.63 | 0.63 | 53 | 1013.9 |
| 20260506224312 | 57 | 332 | 2.0 | 4.0 | 0.00 | 0.63 | 0.63 | 54 | 1013.7 |
| 20260506223808 | 57 | 315 | 2.0 | 7.0 | 0.00 | 0.63 | 0.63 | 55 | 1013.8 |
| 20260506223303 | 57 | 356 | 1.0 | 2.0 | 0.00 | 0.63 | 0.63 | 55 | 1013.8 |
| 20260506222800 | 57 | 1 | 2.0 | 3.0 | 0.00 | 0.63 | 0.63 | 54 | 1014.2 |
| 20260506222256 | 57 | 253 | 0.0 | 3.0 | 0.00 | 0.63 | 0.63 | 53 | 1013.8 |
| 20260506221754 | 57 | 291 | 1.0 | 2.0 | 0.00 | 0.63 | 0.63 | 55 | 1014.1 |
| 20260506221252 | 57 | 333 | 1.0 | 3.0 | 0.00 | 0.63 | 0.63 | 53 | 1014.2 |
| 20260506220749 | 57 | 27 | 0.0 | 2.0 | 0.00 | 0.63 | 0.63 | 54 | 1014.1 |
| 20260506220249 | 57 | 341 | 2.0 | 2.0 | 0.00 | 0.63 | 0.63 | 53 | 1014.4 |
| 20260506215747 | 57 | 300 | 0.0 | 3.0 | 0.00 | 0.63 | 0.63 | 55 | 1014.1 |
| 20260506215242 | 58 | 302 | 1.0 | 2.0 | 0.00 | 0.63 | 0.63 | 56 | 1014.2 |
| 20260506214739 | 58 | 299 | 0.0 | 1.0 | 0.00 | 0.63 | 0.63 | 57 | 1014.2 |
| 20260506214236 | 57 | 336 | 0.0 | 3.0 | 0.00 | 0.63 | 0.63 | 56 | 1014.1 |
| 20260506213734 | 57 | 11 | 2.0 | 4.0 | 0.00 | 0.63 | 0.63 | 55 | 1014.1 |
| 20260506213231 | 57 | 289 | 1.0 | 2.0 | 0.00 | 0.63 | 0.63 | 55 | 1014.0 |
| 20260506212728 | 57 | 296 | 2.0 | 3.0 | 0.00 | 0.63 | 0.63 | 54 | 1014.1 |
| 20260506212224 | 57 | 20 | 1.0 | 1.0 | 0.00 | 0.63 | 0.63 | 55 | 1014.0 |
| 20260506211719 | 57 | 257 | 1.0 | 2.0 | 0.00 | 0.63 | 0.63 | 55 | 1014.2 |
| 20260506211216 | 57 | 309 | 2.0 | 3.0 | 0.00 | 0.63 | 0.63 | 55 | 1013.9 |
| 20260506210713 | 58 | 41 | 1.0 | 3.0 | 0.00 | 0.63 | 0.63 | 55 | 1013.6 |
| 20260506210210 | 58 | 7 | 3.0 | 4.0 | 0.00 | 0.63 | 0.63 | 53 | 1013.4 |
| 20260506205708 | 58 | 318 | 2.0 | 2.0 | 0.00 | 0.63 | 0.63 | 54 | 1013.7 |
| 20260506205208 | 58 | 26 | 4.0 | 4.0 | 0.00 | 0.63 | 0.63 | 52 | 1013.6 |
| 20260506204705 | 58 | 303 | 1.0 | 4.0 | 0.00 | 0.63 | 0.63 | 53 | 1013.6 |
| 20260506204202 | 58 | 341 | 2.0 | 2.0 | 0.00 | 0.63 | 0.63 | 55 | 1013.9 |
| 20260506203700 | 58 | 298 | 4.0 | 6.0 | 0.00 | 0.63 | 0.63 | 54 | 1013.6 |
| 20260506203157 | 57 | 14 | 2.0 | 3.0 | 0.00 | 0.63 | 0.63 | 54 | 1013.8 |
| 20260506202655 | 57 | 343 | 3.0 | 4.0 | 0.00 | 0.63 | 0.63 | 53 | 1013.8 |
| 20260506202151 | 58 | 336 | 3.0 | 3.0 | 0.00 | 0.63 | 0.63 | 53 | 1013.8 |
| 20260506201648 | 58 | 347 | 1.0 | 2.0 | 0.00 | 0.63 | 0.63 | 54 | 1014.0 |
| 20260506201144 | 58 | 354 | 2.0 | 3.0 | 0.00 | 0.63 | 0.63 | 52 | 1013.8 |
| 20260506200641 | 58 | 351 | 1.0 | 2.0 | 0.00 | 0.63 | 0.63 | 53 | 1013.7 |
| 20260506200138 | 58 | 310 | 2.0 | 3.0 | 0.00 | 0.63 | 0.63 | 53 | 1013.8 |
| 20260506195634 | 58 | 23 | 0.0 | 2.0 | 0.00 | 0.63 | 0.63 | 54 | 1013.9 |
| 20260506195131 | 58 | 334 | 3.0 | 3.0 | 0.00 | 0.63 | 0.63 | 52 | 1013.9 |
| 20260506194628 | 58 | 22 | 1.0 | 2.0 | 0.00 | 0.63 | 0.63 | 53 | 1013.5 |
| 20260506194124 | 58 | 320 | 0.0 | 1.0 | 0.00 | 0.63 | 0.63 | 56 | 1013.8 |
| 20260506193623 | 58 | 336 | 1.0 | 3.0 | 0.00 | 0.63 | 0.63 | 53 | 1013.7 |
| 20260506193119 | 58 | 17 | 3.0 | 3.0 | 0.00 | 0.63 | 0.63 | 53 | 1013.5 |
| 20260506192616 | 58 | 26 | 2.0 | 2.0 | 0.00 | 0.63 | 0.63 | 52 | 1013.7 |
| 20260506192112 | 59 | 304 | 4.0 | 6.0 | 0.00 | 0.63 | 0.63 | 54 | 1013.4 |
| 20260506191609 | 59 | 318 | 1.0 | 7.0 | 0.00 | 0.63 | 0.63 | 56 | 1013.3 |
| 20260506191105 | 58 | 323 | 2.0 | 6.0 | 0.00 | 0.63 | 0.63 | 54 | 1013.5 |
| 20260506190602 | 58 | 29 | 1.0 | 3.0 | 0.00 | 0.63 | 0.63 | 55 | 1013.4 |
| 20260506190059 | 59 | 300 | 3.0 | 4.0 | 0.00 | 0.63 | 0.63 | 58 | 1013.6 |
| 20260506185556 | 59 | 300 | 4.0 | 6.0 | 0.00 | 0.63 | 0.63 | 55 | 1013.5 |
| 20260506185053 | 58 | 335 | 2.0 | 2.0 | 0.00 | 0.63 | 0.63 | 55 | 1013.3 |
| 20260506184550 | 58 | 1 | 0.0 | 2.0 | 0.00 | 0.63 | 0.63 | 53 | 1013.3 |
| 20260506184047 | 59 | 4 | 4.0 | 6.0 | 0.00 | 0.63 | 0.63 | 54 | 1013.5 |
| 20260506183543 | 59 | 41 | 4.0 | 6.0 | 0.00 | 0.63 | 0.63 | 52 | 1013.3 |
| 20260506183040 | 60 | 327 | 4.0 | 8.0 | 0.00 | 0.63 | 0.63 | 53 | 1013.4 |
| 20260506182537 | 59 | 356 | 1.0 | 3.0 | 0.00 | 0.63 | 0.63 | 49 | 1013.3 |
| 20260506182034 | 59 | 312 | 2.0 | 3.0 | 0.00 | 0.63 | 0.63 | 51 | 1013.3 |
| 20260506181532 | 59 | 351 | 4.0 | 7.0 | 0.00 | 0.63 | 0.63 | 52 | 1013.2 |
| 20260506181029 | 60 | 29 | 1.0 | 3.0 | 0.00 | 0.63 | 0.63 | 54 | 1013.1 |
| 20260506180525 | 60 | 70 | 0.0 | 1.0 | 0.00 | 0.63 | 0.63 | 57 | 1013.4 |